LA6LOA Weather Reports


Display with metric or nautical units.
time (UTC)temp
F
wind
direction
speed
MPH
gust
MPH
rain 1hr
in
rain 24hr
in
rain mn
in
humidity
%
barometer
mb
20260508073050 44 258 5.0 7.0 0.00 0.00 0.00 100 1021.5
20260508072550 44 261 0.0 8.0 0.00 0.00 0.00 100 1021.4
20260508072050 43 286 6.0 8.0 0.00 0.00 0.00 100 1021.3
20260508071550 43 302 7.0 8.0 0.00 0.00 0.00 100 1021.3
20260508071050 43 305 4.0 8.0 0.00 0.00 0.00 100 1021.2
20260508070550 43 270 0.0 9.0 0.00 0.00 0.00 100 1021.2
20260508070050 43 285 4.0 10.0 0.00 0.00 0.00 100 1021.1
20260508065550 43 284 6.0 9.0 0.00 0.00 0.00 100 1021.0
20260508065050 44 215 0.0 0.0 0.00 0.00 0.00 100 1020.9
20260508064550 43 215 0.0 0.0 0.00 0.00 0.00 100 1020.8
20260508064050 43 215 0.0 0.0 0.00 0.00 0.00 100 1020.7
20260508063550 43 215 0.0 8.0 0.00 0.00 0.00 100 1020.7
20260508063050 43 209 2.0 8.0 0.00 0.00 0.00 100 1020.6
20260508062550 44 243 5.0 6.0 0.00 0.00 0.00 100 1020.4
20260508062050 44 222 1.0 6.0 0.00 0.00 0.00 100 1020.4
20260508061550 44 184 0.0 4.0 0.00 0.00 0.00 100 1020.2
20260508061050 45 202 0.0 3.0 0.00 0.00 0.00 100 1020.1
20260508060550 44 237 0.0 0.0 0.00 0.00 0.00 100 1020.0
20260508060050 44 237 0.0 5.0 0.00 0.00 0.00 100 1019.9
20260508055550 44 299 4.0 5.0 0.00 0.00 0.00 100 1019.9
20260508055050 44 296 5.0 7.0 0.00 0.00 0.00 100 1019.9
20260508054550 44 279 6.0 7.0 0.00 0.00 0.00 100 1019.7
20260508054051 43 217 0.0 3.0 0.00 0.00 0.00 100 1019.7
20260508053551 44 80 0.0 0.0 0.00 0.00 0.00 100 1019.6
20260508053051 43 80 0.0 0.0 0.00 0.00 0.00 100 1019.6
20260508052551 43 80 0.0 0.0 0.00 0.00 0.00 100 1019.6
20260508052051 43 80 0.0 3.0 0.00 0.00 0.00 100 1019.5
20260508051551 42 112 1.0 1.0 0.00 0.00 0.00 100 1019.5
20260508051051 42 160 0.0 3.0 0.00 0.00 0.00 100 1019.5
20260508050551 42 185 0.0 8.0 0.00 0.00 0.00 100 1019.4
20260508050051 42 178 6.0 8.0 0.00 0.00 0.00 100 1019.4
20260508045551 43 122 0.0 0.0 0.00 0.00 0.00 100 1019.4
20260508045051 42 122 0.0 5.0 0.00 0.00 0.00 100 1019.4
20260508044551 42 139 0.0 0.0 0.00 0.00 0.00 100 1019.4
20260508044051 42 139 0.0 0.0 0.00 0.00 0.00 100 1019.3
20260508043551 42 139 0.0 0.0 0.00 0.00 0.00 100 1019.3
20260508043051 42 139 0.0 2.0 0.00 0.00 0.00 100 1019.2
20260508042551 42 139 2.0 3.0 0.00 0.00 0.00 100 1019.2
20260508042051 42 192 0.0 6.0 0.00 0.00 0.00 100 1019.2
20260508041551 42 135 0.0 5.0 0.00 0.00 0.00 100 1019.2
20260508041051 42 185 0.0 5.0 0.00 0.00 0.00 100 1019.1
20260508040551 41 177 1.0 7.0 0.00 0.00 0.00 100 1019.2
20260508040051 41 171 1.0 6.0 0.00 0.00 0.00 100 1019.1
20260508035551 41 220 0.0 0.0 0.00 0.00 0.00 100 1019.1
20260508035051 40 220 0.0 0.0 0.00 0.00 0.00 100 1019.1
20260508034551 40 220 0.0 6.0 0.00 0.00 0.00 100 1019.0
20260508034051 40 137 0.0 0.0 0.00 0.00 0.00 100 1019.0
20260508033551 41 137 0.0 0.0 0.00 0.00 0.00 100 1019.0
20260508033051 43 137 0.0 0.0 0.00 0.00 0.00 100 1018.9
20260508032551 46 137 0.0 0.0 0.00 0.00 0.00 100 1019.0
20260508032051 41 137 0.0 0.0 0.00 0.00 0.00 100 1018.9
20260508031551 40 137 0.0 0.0 0.00 0.00 0.00 100 1018.9
20260508031051 39 137 0.0 7.0 0.00 0.00 0.00 100 1018.8
20260508030551 40 126 0.0 6.0 0.00 0.00 0.00 100 1018.8
20260508030051 42 106 0.0 2.0 0.00 0.00 0.00 100 1018.8
20260508025551 40 106 2.0 6.0 0.00 0.00 0.00 100 1018.8
20260508025051 38 144 1.0 7.0 0.00 0.00 0.00 100 1018.8
20260508024551 38 198 0.0 0.0 0.00 0.00 0.00 100 1018.7
20260508024051 38 198 0.0 0.0 0.00 0.00 0.00 100 1018.7
20260508023551 38 198 0.0 0.0 0.00 0.00 0.00 100 1018.6
20260508023051 38 198 0.0 0.0 0.00 0.00 0.00 100 1018.6
20260508022551 38 198 0.0 0.0 0.00 0.00 0.00 100 1018.6
20260508022051 38 198 0.0 0.0 0.00 0.00 0.00 100 1018.5
20260508021551 38 198 0.0 0.0 0.00 0.00 0.00 100 1018.6
20260508021051 38 198 0.0 0.0 0.00 0.00 0.00 100 1018.5
20260508020551 38 198 0.0 0.0 0.00 0.00 0.00 100 1018.5
20260508020051 38 198 0.0 0.0 0.00 0.00 0.00 100 1018.5
20260508015551 38 198 0.0 5.0 0.00 0.00 0.00 100 1018.5
20260508015051 38 198 0.0 0.0 0.00 0.00 0.00 100 1018.5
20260508014551 38 198 0.0 4.0 0.00 0.00 0.00 100 1018.4
20260508014051 38 213 0.0 6.0 0.00 0.00 0.00 100 1018.4
20260508013551 38 170 0.0 7.0 0.00 0.00 0.00 100 1018.3
20260508013051 38 213 6.0 9.0 0.00 0.00 0.00 100 1018.2
20260508012551 38 203 0.0 0.0 0.00 0.00 0.00 100 1018.2
20260508012051 37 203 0.0 9.0 0.00 0.00 0.00 100 1018.2
20260508011551 38 243 5.0 12.0 0.00 0.00 0.00 100 1018.1
20260508011052 38 253 7.0 14.0 0.00 0.00 0.00 100 1018.1
20260508010552 38 222 11.0 13.0 0.00 0.00 0.00 100 1018.1
20260508010052 37 229 7.0 11.0 0.00 0.00 0.00 100 1018.0
20260508005552 37 222 7.0 9.0 0.00 0.00 0.00 100 1018.1
20260508005052 37 215 4.0 9.0 0.00 0.00 0.00 100 1018.0
20260508004552 37 199 0.0 5.0 0.00 0.00 0.00 100 1017.9
20260508004052 37 215 0.0 8.0 0.00 0.00 0.00 100 1017.9
20260508003552 37 199 0.0 7.0 0.00 0.00 0.00 100 1017.9
20260508003052 36 149 0.0 0.0 0.00 0.00 0.00 100 1017.8
20260508002552 36 149 0.0 0.0 0.00 0.00 0.00 100 1017.7
20260508002052 37 149 0.0 8.0 0.00 0.00 0.00 100 1017.7
20260508001552 37 206 0.0 8.0 0.00 0.00 0.00 100 1017.8
20260508001052 37 208 0.0 8.0 0.00 0.00 0.00 100 1017.7
20260508000552 37 206 6.0 7.0 0.00 0.00 0.00 100 1017.7
20260508000052 37 210 5.0 5.0 0.00 0.00 0.00 100 1017.6
20260507235552 37 206 0.0 10.0 0.00 0.00 0.00 100 1017.7
20260507235052 37 194 6.0 9.0 0.00 0.00 0.00 100 1017.6
20260507234552 37 208 0.0 4.0 0.00 0.00 0.00 100 1017.6
20260507234052 37 205 0.0 8.0 0.00 0.00 0.00 100 1017.6
20260507233552 37 184 1.0 8.0 0.00 0.00 0.00 100 1017.6
20260507233052 37 208 7.0 12.0 0.00 0.00 0.00 100 1017.5
20260507232552 37 229 4.0 11.0 0.00 0.00 0.00 100 1017.5
20260507232052 36 210 9.0 9.0 0.00 0.00 0.00 100 1017.4
20260507231552 36 212 0.0 1.0 0.00 0.00 0.00 100 1017.4
20260507231052 36 212 0.0 8.0 0.00 0.00 0.00 100 1017.3
20260507230552 35 195 0.0 6.0 0.00 0.00 0.00 100 1017.4
20260507230052 35 182 0.0 0.0 0.00 0.00 0.00 100 1017.3
20260507225552 35 182 0.0 3.0 0.00 0.00 0.00 100 1017.4
20260507225052 35 241 0.0 0.0 0.00 0.00 0.00 100 1017.4
20260507224552 35 241 0.0 0.0 0.00 0.00 0.00 100 1017.3
20260507224052 36 241 0.0 0.0 0.00 0.00 0.00 100 1017.3
20260507223552 36 241 0.0 3.0 0.00 0.00 0.00 100 1017.3
20260507223052 36 109 0.0 2.0 0.00 0.00 0.00 100 1017.3
20260507222552 36 109 0.0 0.0 0.00 0.00 0.00 100 1017.3
20260507222052 36 109 0.0 0.0 0.00 0.00 0.00 100 1017.3
20260507221552 36 109 0.0 3.0 0.00 0.00 0.00 100 1017.3
20260507221052 37 202 0.0 0.0 0.00 0.00 0.00 100 1017.3
20260507220552 37 202 0.0 4.0 0.00 0.00 0.00 100 1017.3
20260507220052 37 119 0.0 4.0 0.00 0.00 0.00 100 1017.3
20260507215552 37 178 0.0 4.0 0.00 0.00 0.00 100 1017.3
20260507215052 38 178 1.0 7.0 0.00 0.00 0.00 100 1017.3
20260507214552 38 135 4.0 6.0 0.00 0.00 0.00 100 1017.3
20260507214052 38 101 0.0 7.0 0.00 0.00 0.00 100 1017.3
20260507213552 38 139 5.0 5.0 0.00 0.00 0.00 100 1017.3
20260507213052 38 149 0.0 4.0 0.00 0.00 0.00 100 1017.3
20260507212552 38 106 0.0 0.0 0.00 0.00 0.00 100 1017.3
20260507212052 38 106 0.0 6.0 0.00 0.00 0.00 100 1017.3
20260507211552 38 94 0.0 7.0 0.00 0.00 0.00 100 1017.3
20260507211052 38 120 0.0 0.0 0.00 0.00 0.00 100 1017.3
20260507210552 38 120 0.0 5.0 0.00 0.00 0.00 100 1017.3
20260507210052 38 115 3.0 8.0 0.00 0.00 0.00 100 1017.3
20260507205552 38 175 0.0 6.0 0.00 0.00 0.00 100 1017.4
20260507205052 38 136 0.0 7.0 0.00 0.00 0.00 100 1017.4
20260507204552 38 123 6.0 8.0 0.00 0.00 0.00 100 1017.4
20260507204052 37 75 0.0 0.0 0.00 0.00 0.00 100 1017.4
20260507203552 38 75 0.0 6.0 0.00 0.00 0.00 100 1017.5
20260507203052 37 133 0.0 0.0 0.00 0.00 0.00 100 1017.6
20260507202552 38 133 0.0 0.0 0.00 0.00 0.00 100 1017.5
20260507202052 38 133 0.0 0.0 0.00 0.00 0.00 100 1017.5
20260507201553 38 133 0.0 8.0 0.00 0.00 0.00 100 1017.5
20260507201053 38 172 6.0 6.0 0.00 0.00 0.00 100 1017.4
20260507200553 38 170 0.0 7.0 0.00 0.00 0.00 100 1017.4
20260507200053 38 172 0.0 9.0 0.00 0.00 0.00 100 1017.4
20260507195553 38 146 1.0 7.0 0.00 0.00 0.00 100 1017.4
20260507195053 38 90 0.0 9.0 0.00 0.00 0.00 100 1017.3
20260507194553 38 165 1.0 10.0 0.00 0.00 0.00 100 1017.3
20260507194053 38 158 6.0 11.0 0.00 0.00 0.00 100 1017.3
20260507193553 39 130 7.0 13.0 0.00 0.00 0.00 100 1017.3
20260507193053 39 150 7.0 10.0 0.00 0.00 0.00 100 1017.3
20260507192553 39 153 0.0 9.0 0.00 0.00 0.00 100 1017.2
20260507192053 39 135 0.0 8.0 0.00 0.00 0.00 100 1017.2
20260507191553 39 113 5.0 10.0 0.00 0.00 0.00 100 1017.2
20260507191053 39 136 5.0 12.0 0.00 0.00 0.00 100 1017.1
20260507190553 40 136 5.0 11.0 0.00 0.00 0.00 100 1017.1
20260507190053 40 172 1.0 9.0 0.00 0.00 0.00 100 1017.1
20260507185553 40 122 0.0 8.0 0.00 0.00 0.00 100 1017.1
20260507185053 41 113 1.0 9.0 0.00 0.00 0.00 100 1017.0
20260507184553 41 123 8.0 12.0 0.00 0.00 0.00 100 1017.0
20260507184053 42 170 6.0 11.0 0.00 0.00 0.00 100 1016.9
20260507183553 42 180 4.0 7.0 0.00 0.00 0.00 100 1016.9
20260507183053 41 175 0.0 6.0 0.00 0.00 0.00 100 1016.9
20260507182553 41 108 0.0 0.0 0.00 0.00 0.00 100 1016.8
20260507182053 41 108 0.0 7.0 0.00 0.00 0.00 100 1016.8
20260507181553 41 129 6.0 7.0 0.00 0.00 0.00 100 1016.8
20260507181053 41 105 0.0 8.0 0.00 0.00 0.00 100 1016.8
20260507180553 41 132 5.0 8.0 0.00 0.00 0.00 100 1016.7
20260507180053 41 118 1.0 8.0 0.00 0.00 0.00 100 1016.7
20260507175553 40 97 0.0 6.0 0.00 0.00 0.00 100 1016.7
20260507175053 40 132 1.0 11.0 0.00 0.00 0.00 100 1016.6
20260507174553 41 149 6.0 11.0 0.00 0.00 0.00 100 1016.5
20260507174053 42 160 5.0 10.0 0.00 0.00 0.00 100 1016.4
20260507173553 42 116 4.0 9.0 0.00 0.00 0.00 100 1016.4
20260507173053 42 140 1.0 9.0 0.00 0.00 0.00 100 1016.3
20260507172553 42 180 8.0 9.0 0.00 0.00 0.00 100 1016.3
20260507172053 42 172 1.0 8.0 0.00 0.00 0.00 100 1016.3
20260507171553 42 109 3.0 8.0 0.00 0.00 0.00 100 1016.2
20260507171053 42 129 6.0 9.0 0.00 0.00 0.00 100 1016.2
20260507170554 42 167 5.0 11.0 0.00 0.00 0.00 100 1016.2
20260507170053 42 150 5.0 8.0 0.00 0.00 0.00 100 1016.1
20260507165553 41 84 0.0 6.0 0.00 0.00 0.00 100 1016.1
20260507165053 42 113 5.0 8.0 0.00 0.00 0.00 100 1016.0
20260507164553 43 154 0.0 5.0 0.00 0.00 0.00 100 1016.1
20260507164053 43 161 0.0 7.0 0.00 0.00 0.00 100 1016.1
20260507163553 43 137 4.0 8.0 0.00 0.00 0.00 100 1016.1
20260507163053 43 101 1.0 7.0 0.00 0.00 0.00 100 1016.0
20260507162553 43 153 5.0 5.0 0.00 0.00 0.00 100 1016.0
20260507162053 43 99 0.0 4.0 0.00 0.00 0.00 100 1015.9
20260507161553 43 164 0.0 6.0 0.00 0.00 0.00 100 1015.9
20260507161053 42 104 0.0 7.0 0.00 0.00 0.00 100 1015.9
20260507160553 42 146 1.0 6.0 0.00 0.00 0.00 100 1015.9
20260507160053 42 127 0.0 8.0 0.00 0.00 0.00 100 1015.8
20260507155553 42 91 0.0 0.0 0.00 0.00 0.00 100 1015.8
20260507155053 42 91 0.0 6.0 0.00 0.00 0.00 100 1015.8
20260507154553 42 90 0.0 6.0 0.00 0.00 0.00 100 1015.8
20260507154054 42 125 0.0 0.0 0.00 0.00 0.00 100 1015.7
20260507153554 41 125 0.0 7.0 0.00 0.00 0.00 100 1015.7
20260507153054 40 101 0.0 0.0 0.00 0.00 0.00 100 1015.6
20260507152554 40 101 0.0 0.0 0.00 0.00 0.00 100 1015.6
20260507152054 40 101 0.0 0.0 0.00 0.00 0.00 100 1015.6
20260507151554 40 101 0.0 3.0 0.00 0.00 0.00 100 1015.6
20260507151054 41 310 0.0 0.0 0.00 0.00 0.00 100 1015.6
20260507150554 40 310 0.0 0.0 0.00 0.00 0.00 100 1015.7
20260507150054 41 310 0.0 0.0 0.00 0.00 0.00 100 1015.7
20260507145554 40 310 0.0 0.0 0.00 0.00 0.00 100 1015.6
20260507145054 39 310 0.0 0.0 0.00 0.00 0.00 100 1015.6
20260507144554 40 310 0.0 0.0 0.00 0.00 0.00 100 1015.6
20260507144054 40 310 0.0 8.0 0.00 0.00 0.00 100 1015.5
20260507143554 40 319 4.0 8.0 0.00 0.00 0.00 100 1015.5
20260507143054 41 309 7.0 7.0 0.00 0.00 0.00 100 1015.4
20260507142554 41 307 1.0 9.0 0.00 0.00 0.00 100 1015.4
20260507142054 41 327 4.0 8.0 0.00 0.00 0.00 100 1015.4
20260507141554 41 319 6.0 9.0 0.00 0.00 0.00 100 1015.4
20260507141054 42 316 7.0 8.0 0.00 0.00 0.00 100 1015.4
20260507140554 43 317 6.0 9.0 0.00 0.00 0.00 100 1015.4
20260507140054 42 319 6.0 10.0 0.00 0.00 0.00 100 1015.3
20260507135554 42 312 9.0 12.0 0.00 0.00 0.00 100 1015.3
20260507135054 42 329 10.0 14.0 0.00 0.00 0.00 100 1015.2
20260507134554 43 323 9.0 13.0 0.00 0.00 0.00 100 1015.2
20260507134054 42 316 12.0 12.0 0.00 0.00 0.00 100 1015.1
20260507133554 41 313 6.0 11.0 0.00 0.00 0.00 100 1015.0
20260507133054 41 306 10.0 12.0 0.00 0.00 0.00 100 1015.0
20260507132554 42 313 7.0 12.0 0.00 0.00 0.00 100 1014.9
20260507132054 42 299 9.0 13.0 0.00 0.00 0.00 100 1014.8
20260507131554 42 303 7.0 13.0 0.00 0.00 0.00 100 1014.8
20260507131054 42 289 10.0 13.0 0.00 0.00 0.00 100 1014.8
20260507130554 42 285 9.0 14.0 0.00 0.00 0.00 100 1014.8
20260507130054 42 291 10.0 15.0 0.00 0.00 0.00 100 1014.8
20260507125554 43 286 10.0 15.0 0.00 0.00 0.00 100 1014.6
20260507125054 43 271 11.0 16.0 0.00 0.00 0.00 100 1014.5
20260507124554 43 268 13.0 16.0 0.00 0.00 0.00 100 1014.4
20260507124054 43 292 10.0 19.0 0.00 0.00 0.00 100 1014.3
20260507123554 44 292 11.0 20.0 0.00 0.00 0.00 100 1014.3
20260507123054 44 288 13.0 19.0 0.00 0.00 0.00 100 1014.2
20260507122554 43 324 8.0 19.0 0.00 0.00 0.00 100 1014.1
20260507122054 44 286 12.0 16.0 0.00 0.00 0.00 100 1013.9
20260507121554 44 279 15.0 19.0 0.00 0.00 0.00 100 1013.9
20260507121054 45 281 9.0 15.0 0.00 0.00 0.00 100 1013.9
20260507120555 45 271 11.0 18.0 0.00 0.00 0.00 100 1013.9
20260507120054 45 307 9.0 13.0 0.00 0.00 0.00 100 1013.8
20260507115554 46 230 7.0 13.0 0.00 0.00 0.00 100 1013.8
20260507115054 46 209 7.0 14.0 0.00 0.00 0.00 100 1013.6
20260507114554 45 153 9.0 13.0 0.00 0.00 0.00 100 1013.5
20260507114054 44 212 7.0 11.0 0.00 0.00 0.00 100 1013.5
20260507113554 44 135 5.0 12.0 0.00 0.00 0.00 100 1013.4
20260507113054 45 177 7.0 9.0 0.00 0.00 0.00 100 1013.3
20260507112554 45 181 6.0 11.0 0.00 0.00 0.00 100 1013.2
20260507112054 45 147 0.0 14.0 0.00 0.00 0.00 100 1013.2
20260507111554 45 167 5.0 12.0 0.00 0.00 0.00 100 1013.1
20260507111054 45 151 8.0 15.0 0.00 0.00 0.00 100 1013.1
20260507110554 45 174 9.0 14.0 0.00 0.00 0.00 100 1013.0
20260507110054 45 192 9.0 14.0 0.00 0.00 0.00 100 1013.1
20260507105555 45 120 4.0 12.0 0.00 0.00 0.00 100 1013.0
20260507105055 45 226 8.0 13.0 0.00 0.00 0.00 100 1013.0
20260507104555 45 189 8.0 12.0 0.00 0.00 0.00 100 1013.0
20260507104055 45 164 6.0 12.0 0.00 0.00 0.00 100 1013.0
20260507103555 45 156 6.0 11.0 0.00 0.00 0.00 100 1013.1
20260507103055 45 156 4.0 8.0 0.00 0.00 0.00 100 1013.1
20260507102555 45 182 6.0 9.0 0.00 0.00 0.00 100 1013.1
20260507102055 45 94 1.0 6.0 0.00 0.00 0.00 100 1013.2
20260507101555 45 116 0.0 7.0 0.00 0.00 0.00 100 1013.2
20260507101055 44 129 1.0 7.0 0.00 0.00 0.00 100 1013.2
20260507100555 44 258 0.0 0.0 0.00 0.00 0.00 100 1013.2
20260507100055 45 258 0.0 0.0 0.00 0.00 0.00 100 1013.2
20260507095555 46 258 0.0 0.0 0.00 0.00 0.00 100 1013.2
20260507095055 45 258 0.0 5.0 0.00 0.00 0.00 100 1013.4
20260507094555 45 303 4.0 5.0 0.00 0.00 0.00 100 1013.4
20260507094055 45 320 4.0 8.0 0.00 0.00 0.00 100 1013.4
20260507093555 45 113 2.0 10.0 0.00 0.00 0.00 100 1013.5
20260507093055 45 215 7.0 11.0 0.00 0.00 0.00 100 1013.4
20260507092555 46 241 10.0 12.0 0.00 0.00 0.00 100 1013.2
20260507092055 47 312 1.0 12.0 0.00 0.00 0.00 100 1013.3
20260507091555 47 250 7.0 13.0 0.00 0.00 0.00 100 1013.2
20260507091055 48 140 9.0 12.0 0.00 0.00 0.00 100 1013.2
20260507090555 48 161 4.0 13.0 0.00 0.00 0.00 100 1013.2
20260507090055 47 137 0.0 11.0 0.00 0.00 0.00 100 1013.3
20260507085555 46 229 11.0 11.0 0.00 0.00 0.00 100 1013.3
20260507085055 47 216 2.0 8.0 0.00 0.00 0.00 100 1013.2
20260507084555 46 118 0.0 12.0 0.00 0.00 0.00 100 1013.2
20260507084055 46 223 0.0 9.0 0.00 0.00 0.00 100 1013.2
20260507083555 46 188 8.0 8.0 0.00 0.00 0.00 100 1013.1
20260507083055 46 188 6.0 12.0 0.00 0.00 0.00 100 1013.1
20260507082555 46 192 7.0 11.0 0.00 0.00 0.00 100 1013.0
20260507082055 46 182 5.0 11.0 0.00 0.00 0.00 100 1013.0
20260507081555 46 187 5.0 10.0 0.00 0.00 0.00 100 1012.9
20260507081055 46 126 4.0 13.0 0.00 0.00 0.00 100 1012.9
20260507080555 46 201 9.0 9.0 0.00 0.00 0.00 100 1012.9
20260507080055 46 125 9.0 10.0 0.00 0.00 0.00 100 1012.8
20260507075555 46 182 7.0 9.0 0.00 0.00 0.00 100 1012.7
20260507075055 46 181 6.0 8.0 0.00 0.00 0.00 100 1012.7
20260507074555 46 182 7.0 9.0 0.00 0.00 0.00 100 1012.6
20260507074055 46 180 5.0 9.0 0.00 0.00 0.00 100 1012.6
20260507073555 46 202 4.0 10.0 0.00 0.00 0.00 100 1012.5